Content
SEND FEEDBACK

Daily
Averages
Monthly
Summary
United States of America

ACHANG BAY, GUAM


Home > North America > United States > Guam
Elevation: 10 meters     Latitude: 13 16N     Longitude: 144 45E

WEATHER
 
SELECT A DAY
Number of Records: 356,396;   Date Range: 1/1/95 - 12/17/14
 
SHARE

PRINT THIS DATA

[ ← Previous Day ]
WEATHER ALMANAC - 7 JUNE, 2014
[ Next Day → ]
[ °F ]   °C
Weather ElementAverageHighLow
Temperature28.1 °C30 °C (10:43 am)25.4 °C (5:58 am)
Dewpoint23.8 °C24.1 °C (8:58 am)23 °C (5:58 am)
Humidity77.4 %86 % (2:58 am)70 % (10:38 am)
Barometer1007.8 hPa1008.8 hPa (8:33 am)1005.8 hPa (2:58 pm)
Wind Speed11.7 km/h16.7 km/h (12:58 pm)
Weather ElementAverage
Visibility16.1 km
Wind DirectionENE (77.5 °)

Weather ElementTotal
Precipitation---
Cooling Degree Days9.4 (Base 18.3)
Growing Degree Days17.7 (Base 10)
Averaged from 32 records on 7 June, 2014
WEATHER CONDITIONS BREAKOUT
WIND DIRECTION BREAKOUT
WEATHER BY HOUR - 7 JUNE, 2014
[ °F ]   °C
Local TimeTemperatureDewpointHumidityBarometerVisibilityWind DirectionWind SpeedGust SpeedPrecipitationEventsConditions
2:58 AM25.5 °C23.1 °C86 %1006.8 hPa16.1 kmESE (110°)5.6 km/hClear
3:58 AM25.9 °C23.2 °C85 %1006.8 hPa16.1 kmNE (40°)5.6 km/hClear
4:58 AM25.8 °C23.3 °C86 %1007.1 hPa16.1 kmENE (60°)7.4 km/hClear
5:58 AM25.4 °C23 °C86 %1007.5 hPa16.1 kmCalmClear
6:58 AM26.7 °C23.7 °C83 %1007.8 hPa16.1 kmEast (90°)9.3 km/hClear
7:58 AM28 °C23.8 °C78 %1007.8 hPa16.1 kmENE (70°)9.3 km/hPartly Cloudy
8:33 AM28 °C24 °C79 %1008.8 hPa16.1 kmEast (80°)13 km/hMostly Cloudy
8:38 AM28 °C24 °C79 %1008.8 hPa16.1 kmEast (80°)11.1 km/hScattered Clouds
8:43 AM29 °C24 °C74 %1008.8 hPa16.1 kmENE (60°)11.1 km/hMostly Cloudy
8:58 AM28.5 °C24.1 °C77 %1007.8 hPa16.1 kmEast (80°)11.1 km/hMostly Cloudy
9:42 AM29 °C24 °C74 %1008.8 hPa16.1 kmENE (70°)13 km/hScattered Clouds
9:47 AM29 °C24 °C74 %1008.8 hPa16.1 kmENE (70°)13 km/hMostly Cloudy
9:52 AM29 °C24 °C74 %1008.8 hPa16.1 kmEast (90°)14.8 km/hMostly Cloudy
9:57 AM29 °C24 °C74 %1008.8 hPa16.1 kmENE (70°)11.1 km/hScattered Clouds
9:58 AM29.1 °C23.7 °C72 %1007.8 hPa16.1 kmENE (70°)11.1 km/hScattered Clouds
10:38 AM29 °C23 °C70 %1008.5 hPa16.1 kmENE (60°)14.8 km/hScattered Clouds
10:43 AM30 °C24 °C70 %1008.5 hPa16.1 kmENE (60°)9.3 km/hScattered Clouds
10:58 AM29.6 °C23.8 °C71 %1007.5 hPa16.1 kmENE (60°)13 km/hScattered Clouds
11:58 AM29.7 °C24 °C71 %1007.1 hPa16.1 kmESE (110°)13 km/hPartly Cloudy
12:58 PM30 °C24 °C70 %1006.8 hPa16.1 kmEast (80°)16.7 km/hMostly Cloudy
1:08 PM29 °C24 °C74 %1007.5 hPa16.1 kmEast (100°)13 km/hScattered Clouds
1:58 PM29.4 °C24 °C73 %1006.1 hPa16.1 kmEast (100°)16.7 km/hPartly Cloudy
2:58 PM29.4 °C23.4 °C70 %1005.8 hPa16.1 kmESE (110°)13 km/hScattered Clouds
3:58 PM29.3 °C24 °C73 %1005.8 hPa16.1 kmEast (80°)16.7 km/hPartly Cloudy
4:58 PM28.8 °C23.5 °C73 %1005.8 hPa16.1 kmEast (90°)16.7 km/hClear
5:58 PM28 °C23.9 °C78 %1006.4 hPa16.1 kmEast (80°)16.7 km/hClear
6:58 PM27.2 °C23.2 °C79 %1006.8 hPa16.1 kmEast (100°)13 km/hPartly Cloudy
7:58 PM27 °C23.8 °C83 %1008.8 hPa16.1 kmEast (90°)11.1 km/hPartly Cloudy
8:58 PM26.8 °C24 °C85 %1008.1 hPa16.1 kmEast (80°)11.1 km/hPartly Cloudy
9:58 PM26.6 °C24 °C86 %1008.5 hPa16.1 kmEast (80°)13 km/hPartly Cloudy
10:58 PM26.7 °C24 °C85 %1008.5 hPa16.1 kmEast (80°)9.3 km/hClear
11:58 PM26.3 °C23.8 °C86 %1008.1 hPa16.1 kmEast (80°)13 km/hPartly Cloudy
Hourly data recorded from PGUA, located 0 kilometers away from Achang Bay, Guam







STORIES FROM OUR PARTNERS